[[{"header":{"parameterUnit":"m.s-1","parameterCategory":2,"la1":30.2992,"la2":30.254,"lo1":-89.0895,"lo2":-89.0443,"dy":0.0025,"dx":0.0025,"nx":19,"ny":19,"refTime":"2026-05-15T03:00:00:Z","depth":"0","parameterNumber":2,"parameterNumberName":"U-component_of_CURRENTS"},"data":[0,0,0,-0.3318,-0.3322,-0.3504,-0.3505,-0.3571,-0.3571,0,0,0,0,0,0,0,0,0,0,0,-0.3223,-0.3224,-0.3317,-0.3323,-0.3504,-0.3505,-0.3571,-0.3571,0,0,0,0,0,0,0,0,0,0,0,-0.3223,-0.3224,-0.3225,-0.3324,-0.3504,-0.3505,-0.3571,-0.3468,0,0,0,0,0,0,0,0,0,0,-0.3309,-0.3244,-0.3224,-0.3226,-0.3325,-0.3504,-0.3505,-0.3465,-0.3474,-0.345,0,-0.3484,0,-0.3553,-0.3575,-0.3575,0,0,0,-0.3294,-0.3236,-0.3309,-0.3226,-0.3327,-0.3504,-0.3414,-0.3471,-0.3482,-0.3462,-0.3486,-0.349,-0.3554,-0.3575,-0.3575,-0.3785,-0.3787,0,0,-0.3284,-0.323,-0.3302,-0.3316,-0.3379,-0.3409,-0.342,-0.3479,-0.3474,-0.3486,-0.3494,-0.3555,-0.3575,-0.3576,-0.3783,-0.3785,0,0,0,-0.3275,-0.3223,-0.3296,-0.331,-0.3371,-0.3415,-0.3428,-0.3471,-0.3503,-0.3495,-0.3556,-0.3576,-0.3576,-0.3781,-0.3784,-0.3907,0,0,0,-0.3267,-0.3221,-0.3291,-0.3257,-0.3371,-0.3446,-0.3417,-0.3497,-0.3508,-0.3556,-0.3576,-0.3577,-0.3779,-0.3783,-0.3899,-0.3909,0,0,0,-0.3214,-0.3215,-0.3243,-0.3255,-0.3354,-0.3447,-0.3481,-0.3501,-0.3546,-0.3575,-0.3577,-0.3777,-0.3782,-0.3892,-0.3899,-0.374,0,0,0,-0.3142,-0.325,-0.3241,-0.3403,-0.3353,-0.3586,-0.3482,-0.3609,-0.365,-0.3576,-0.3779,-0.3784,-0.389,-0.3893,-0.3737,-0.3226,-0.3195,0,0,-0.3261,-0.3262,-0.3376,-0.3377,-0.3625,-0.3558,-0.3782,-0.376,-0.3706,-0.3737,-0.3743,-0.3902,-0.3898,-0.3739,-0.3492,-0.3451,0,0,0,-0.3408,-0.3472,-0.3553,-0.3687,-0.3819,-0.3892,-0.3911,-0.3908,-0.3931,-0.3759,-0.3961,-0.3955,-0.3848,-0.3539,-0.3511,-0.3406,-0.3805,-0.3804,-0.3804,-0.3392,-0.3548,-0.3733,-0.3911,-0.4035,-0.4134,-0.4177,-0.4164,-0.4106,-0.4142,-0.4102,-0.413,-0.3815,-0.3784,-0.3693,-0.4177,-0.4178,-0.4178,-0.4179,-0.3534,-0.3617,-0.382,-0.4038,-0.4147,-0.4283,-0.4392,-0.4355,-0.4311,-0.4304,-0.4191,-0.3747,-0.3756,-0.3671,-0.4188,-0.4186,-0.4185,-0.4184,-0.4183,-0.3456,-0.3512,-0.3683,-0.3923,-0.41,-0.426,-0.4222,-0.4331,-0.4358,-0.4331,-0.3774,-0.3765,-0.3624,-0.4189,-0.4188,-0.4187,-0.4187,-0.4187,-0.4186,-0.3218,-0.342,-0.3454,-0.3763,-0.3801,-0.3899,-0.4045,-0.3957,-0.3823,-0.3824,-0.3817,-0.3615,-0.4128,-0.4053,-0.4178,-0.4179,-0.4181,-0.4181,-0.4182,-0.298,-0.3045,-0.3085,-0.3119,-0.3243,-0.3152,-0.3387,-0.3153,-0.3128,-0.2957,-0.3056,-0.3492,-0.3342,-0.336,-0.3265,-0.3178,-0.3178,-0.3178,-0.3177,-0.2658,-0.2764,-0.2624,-0.2568,-0.2556,-0.2739,-0.2334,-0.232,-0.2378,-0.2391,-0.2606,-0.2552,-0.2597,-0.2408,-0.2448,-0.2338,-0.2018,-0.2017,-0.2017,-0.2329,-0.2392,-0.2134,-0.2237,-0.2214,-0.2191,-0.1838,-0.1703,-0.1817,-0.1989,-0.2585,-0.2634,-0.2597,-0.2675,-0.2414,-0.2477,-0.2311,0,0]},{"header":{"parameterUnit":"m.s-1","parameterCategory":2,"la1":30.2992,"la2":30.254,"lo1":-89.0895,"lo2":-89.0443,"dy":0.0025,"dx":0.0025,"nx":19,"ny":19,"refTime":"2026-05-15T03:00:00:Z","depth":"0","parameterNumber":3,"parameterNumberName":"V-component_of_CURRENTS"},"data":[0,0,0,0.0167,0.0168,0.0289,0.029,0.0512,0.0514,0,0,0,0,0,0,0,0,0,0,0,0.0119,0.0119,0.0166,0.0169,0.0289,0.029,0.0512,0.0514,0,0,0,0,0,0,0,0,0,0,0,0.0119,0.0119,0.0119,0.0169,0.0289,0.029,0.0511,0.041,0,0,0,0,0,0,0,0,0,0,0.0287,0.0225,0.0119,0.0119,0.0169,0.0289,0.029,0.0405,0.0416,0.0468,0,0.0463,0,0.0486,0.0528,0.0529,0,0,0,0.0196,0.0215,0.0242,0.0119,0.017,0.0288,0.0242,0.0411,0.0424,0.0484,0.0466,0.0475,0.049,0.0529,0.053,0.0724,0.0724,0,0,0.0189,0.0158,0.0232,0.0249,0.0173,0.0238,0.0246,0.0418,0.0425,0.0467,0.048,0.0494,0.0531,0.0532,0.0723,0.0724,0,0,0,0.0151,0.0153,0.0175,0.024,0.0253,0.0241,0.025,0.0418,0.0422,0.0482,0.0496,0.0532,0.0534,0.0723,0.0724,0.0598,0,0,0,0.0149,0.0129,0.0171,0.0157,0.0248,0.0328,0.0245,0.041,0.043,0.0495,0.0532,0.0536,0.0722,0.0723,0.06,0.0498,0,0,0,0.0119,0.0127,0.013,0.0154,0.0194,0.0325,0.0341,0.0415,0.0439,0.0529,0.0537,0.0722,0.0723,0.0602,0.0504,0.05,0,0,0,0.0101,0.006,0.0129,0.0108,0.0192,0.0261,0.034,0.0407,0.0475,0.0533,0.0722,0.0724,0.0603,0.0508,0.0503,0.054,0.053,0,0,0.003,0.0051,0.0042,0.0105,0.0127,0.0249,0.0312,0.0426,0.0522,0.0674,0.0678,0.06,0.0505,0.0501,0.0618,0.0604,0,0,0,0.0008,-0.0014,0.0011,0.0045,0.0136,0.0219,0.0358,0.0431,0.0556,0.0565,0.0663,0.0607,0.0608,0.064,0.063,0.0854,0.073,0.073,0.0729,-0.0153,-0.0088,-0.0105,-0.002,0.0052,0.0217,0.0285,0.0423,0.0536,0.0579,0.0553,0.0523,0.0559,0.0551,0.0783,0.0636,0.0636,0.0635,0.0635,-0.0307,-0.0331,-0.0213,-0.0219,-0.007,0.0009,0.0224,0.0309,0.0431,0.0518,0.0527,0.0565,0.0533,0.0785,0.0628,0.0629,0.063,0.0631,0.0631,-0.0456,-0.0457,-0.044,-0.0409,-0.0334,-0.0148,-0.0057,0.0102,0.0281,0.0288,0.0403,0.0407,0.0586,0.0327,0.0327,0.0326,0.0326,0.0326,0.0325,-0.0626,-0.0598,-0.0643,-0.0606,-0.057,-0.0479,-0.0238,-0.0114,0.0104,0.0253,0.0256,0.0623,0.043,0.0393,0.0318,0.0319,0.032,0.0321,0.0321,-0.0796,-0.0779,-0.0849,-0.0847,-0.0784,-0.0689,-0.0485,-0.0172,-0.004,0.0077,0.0531,0.0276,0.032,0.0331,0.0296,0.02,0.02,0.02,0.02,-0.0898,-0.0903,-0.0961,-0.0972,-0.095,-0.0772,-0.05,-0.0165,0.028,0.0533,0.0608,0.0725,0.072,0.0795,0.0796,0.0776,0.0803,0.0804,0.0805,-0.097,-0.0981,-0.1023,-0.1031,-0.0994,-0.0818,-0.0456,0.0023,0.0614,0.0853,0.091,0.0885,0.1082,0.1056,0.1199,0.1182,0.1156,0,0]}],[{"header":{"parameterUnit":"m.s-1","parameterCategory":2,"la1":30.2992,"la2":30.254,"lo1":-89.0895,"lo2":-89.0443,"dy":0.0025,"dx":0.0025,"nx":19,"ny":19,"refTime":"2026-05-15T03:00:00:Z","depth":"2","parameterNumber":2,"parameterNumberName":"U-component_of_CURRENTS"},"data":[0,0,0,-0.2665,-0.2668,-0.2781,-0.2781,-0.2786,-0.2786,0,0,0,0,0,0,0,0,0,0,0,-0.264,-0.2641,-0.2665,-0.2668,-0.2781,-0.2781,-0.2786,-0.2786,0,0,0,0,0,0,0,0,0,0,0,-0.2639,-0.2641,-0.2642,-0.2669,-0.2781,-0.2781,-0.2786,-0.2733,0,0,0,0,0,0,0,0,0,0,-0.264,-0.2643,-0.264,-0.2642,-0.267,-0.2781,-0.2781,-0.2732,-0.2736,-0.2699,0,-0.2743,0,-0.2761,-0.2784,-0.2784,0,0,0,-0.2658,-0.264,-0.2668,-0.2643,-0.2671,-0.2781,-0.2727,-0.2736,-0.274,-0.2704,-0.2743,-0.2744,-0.2761,-0.2784,-0.2784,-0.2745,-0.2745,0,0,-0.2651,-0.2653,-0.2665,-0.2672,-0.2732,-0.2724,-0.2731,-0.274,-0.2756,-0.2743,-0.2744,-0.2761,-0.2784,-0.2783,-0.2746,-0.2745,0,0,0,-0.2641,-0.2649,-0.2679,-0.2671,-0.2701,-0.2727,-0.2735,-0.2756,-0.2767,-0.2745,-0.2761,-0.2783,-0.2783,-0.2746,-0.2745,-0.2929,0,0,0,-0.2637,-0.2643,-0.2677,-0.2677,-0.2702,-0.2749,-0.2751,-0.2767,-0.2768,-0.2761,-0.2783,-0.2783,-0.2746,-0.2746,-0.2925,-0.2899,0,0,0,-0.2629,-0.2642,-0.2665,-0.2677,-0.2729,-0.275,-0.2762,-0.2768,-0.2777,-0.2784,-0.2783,-0.2746,-0.2746,-0.2921,-0.2895,-0.2953,0,0,0,-0.261,-0.2699,-0.2666,-0.2739,-0.2729,-0.2778,-0.2763,-0.2846,-0.287,-0.2783,-0.2746,-0.2746,-0.292,-0.2892,-0.295,-0.25,-0.2479,0,0,-0.2713,-0.2712,-0.2745,-0.2718,-0.2768,-0.276,-0.2842,-0.2905,-0.2828,-0.2732,-0.2732,-0.2926,-0.2894,-0.2953,-0.2472,-0.2451,0,0,0,-0.2768,-0.2771,-0.2779,-0.2799,-0.2826,-0.2885,-0.2925,-0.2949,-0.2955,-0.2838,-0.2864,-0.2833,-0.2868,-0.2587,-0.2571,-0.2743,-0.2743,-0.2743,-0.2743,-0.2789,-0.2802,-0.2827,-0.2848,-0.2908,-0.299,-0.302,-0.3028,-0.3004,-0.3051,-0.2944,-0.3038,-0.274,-0.2722,-0.295,-0.295,-0.2951,-0.2952,-0.2952,-0.2836,-0.2782,-0.2847,-0.2893,-0.296,-0.3064,-0.3131,-0.317,-0.3122,-0.3086,-0.3115,-0.2739,-0.2715,-0.2965,-0.2963,-0.2961,-0.2959,-0.2958,-0.2958,-0.2768,-0.2732,-0.2805,-0.2867,-0.296,-0.3083,-0.3073,-0.3151,-0.3213,-0.3191,-0.2867,-0.2857,-0.314,-0.3252,-0.3252,-0.3253,-0.3253,-0.3253,-0.3253,-0.2614,-0.2676,-0.2656,-0.277,-0.2775,-0.2871,-0.3013,-0.298,-0.2957,-0.2918,-0.2915,-0.3136,-0.3126,-0.315,-0.3256,-0.3255,-0.3255,-0.3255,-0.3255,-0.2358,-0.243,-0.2402,-0.2387,-0.2412,-0.2355,-0.2556,-0.2486,-0.2549,-0.2437,-0.2752,-0.2763,-0.2634,-0.2637,-0.2644,-0.2613,-0.2614,-0.2613,-0.2613,-0.2106,-0.2169,-0.2042,-0.1979,-0.1954,-0.2052,-0.183,-0.1862,-0.2043,-0.213,-0.2154,-0.2011,-0.2043,-0.1876,-0.1897,-0.1888,-0.1661,-0.166,-0.1659,-0.1826,-0.1866,-0.1696,-0.1766,-0.1716,-0.1716,-0.1493,-0.1364,-0.1433,-0.1642,-0.22,-0.2508,-0.2349,-0.2381,-0.2161,-0.2183,-0.2181,0,0]},{"header":{"parameterUnit":"m.s-1","parameterCategory":2,"la1":30.2992,"la2":30.254,"lo1":-89.0895,"lo2":-89.0443,"dy":0.0025,"dx":0.0025,"nx":19,"ny":19,"refTime":"2026-05-15T03:00:00:Z","depth":"2","parameterNumber":3,"parameterNumberName":"V-component_of_CURRENTS"},"data":[0,0,0,-0.0054,-0.0052,0.0051,0.0051,0.0235,0.0236,0,0,0,0,0,0,0,0,0,0,0,-0.0095,-0.0095,-0.0054,-0.0052,0.0051,0.0051,0.0234,0.0236,0,0,0,0,0,0,0,0,0,0,0,-0.0095,-0.0095,-0.0094,-0.0052,0.0051,0.0052,0.0234,0.0146,0,0,0,0,0,0,0,0,0,0,0.0041,0.0003,-0.0095,-0.0094,-0.0051,0.0051,0.0052,0.0141,0.0152,0.02,0,0.0205,0,0.0225,0.0249,0.025,0,0,0,-0.0042,-0.0005,0.001,-0.0094,-0.005,0.005,0.0007,0.0147,0.0158,0.0213,0.0207,0.0214,0.0228,0.025,0.0251,0.0443,0.0444,0,0,-0.0047,-0.0058,0.0002,0.0017,-0.0035,0.0004,0.001,0.0153,0.0169,0.0208,0.0219,0.0231,0.0251,0.0253,0.0443,0.0443,0,0,0,-0.0071,-0.0062,-0.005,0.0009,0.0024,0.0007,0.0014,0.0163,0.0163,0.0221,0.0233,0.0252,0.0255,0.0442,0.0443,0.0386,0,0,0,-0.0073,-0.0076,-0.0053,-0.0056,0.002,0.0091,0.0021,0.0152,0.0169,0.0232,0.0252,0.0256,0.0441,0.0442,0.0385,0.0256,0,0,0,-0.0098,-0.0078,-0.0074,-0.0057,-0.0018,0.0089,0.0098,0.0156,0.0177,0.025,0.0257,0.044,0.0442,0.0385,0.0261,0.0272,0,0,0,-0.0101,-0.0137,-0.0074,-0.0101,-0.0019,0.0035,0.0097,0.015,0.0203,0.0253,0.0441,0.0443,0.0385,0.0263,0.0274,0.0267,0.0258,0,0,-0.0164,-0.0144,-0.0165,-0.0107,-0.0096,0.0022,0.0103,0.0191,0.0255,0.0398,0.0402,0.0385,0.0261,0.0272,0.0364,0.0352,0,0,0,-0.0197,-0.022,-0.0204,-0.0175,-0.0094,0.0013,0.0146,0.0229,0.0347,0.0295,0.0436,0.0358,0.0368,0.037,0.0362,0.0451,0.0451,0.045,0.045,-0.032,-0.0281,-0.0308,-0.0233,-0.0148,0.0031,0.0104,0.0253,0.0358,0.0416,0.0354,0.0363,0.0371,0.0363,0.0459,0.0458,0.0458,0.0458,0.0458,-0.0466,-0.05,-0.0389,-0.0408,-0.0236,-0.0124,0.0115,0.0199,0.031,0.0387,0.0404,0.0359,0.0349,0.0454,0.0455,0.0456,0.0456,0.0456,0.0456,-0.0595,-0.0602,-0.0601,-0.0565,-0.047,-0.0251,-0.0172,-0.0008,0.0186,0.0175,0.0248,0.0249,0.0268,0.0234,0.0234,0.0233,0.0233,0.0233,0.0232,-0.0728,-0.0721,-0.0768,-0.0733,-0.0696,-0.0597,-0.0364,-0.025,-0.0023,0.0116,0.0119,0.0287,0.0294,0.0257,0.0225,0.0226,0.0227,0.0228,0.0228,-0.0874,-0.0862,-0.0939,-0.0947,-0.0894,-0.0828,-0.0626,-0.0338,-0.0206,-0.0098,0.0128,0.0133,0.0136,0.0145,0.0107,0.0037,0.0037,0.0037,0.0037,-0.095,-0.096,-0.1025,-0.1051,-0.1042,-0.0911,-0.0706,-0.0388,-0.0095,0.0044,0.0043,0.0118,0.0125,0.0132,0.0142,0.0105,0.0035,0.0035,0.0035,-0.1001,-0.1018,-0.1059,-0.1085,-0.1075,-0.0949,-0.0709,-0.0305,0.0026,0.0037,0.0063,0.0033,0.0146,0.0156,0.0174,0.0187,0.0132,0,0]}],[{"header":{"parameterUnit":"m.s-1","parameterCategory":2,"la1":30.2992,"la2":30.254,"lo1":-89.0895,"lo2":-89.0443,"dy":0.0025,"dx":0.0025,"nx":19,"ny":19,"refTime":"2026-05-15T03:00:00:Z","depth":"4","parameterNumber":2,"parameterNumberName":"U-component_of_CURRENTS"},"data":[0,0,0,-0.0911,-0.0913,-0.1057,-0.1058,-0.1253,-0.1255,0,0,0,0,0,0,0,0,0,0,0,-0.0869,-0.0869,-0.0911,-0.0913,-0.1057,-0.1058,-0.1253,-0.1255,0,0,0,0,0,0,0,0,0,0,0,-0.0869,-0.0869,-0.087,-0.0913,-0.1057,-0.1058,-0.1253,-0.115,0,0,0,0,0,0,0,0,0,0,-0.1012,-0.0973,-0.0869,-0.087,-0.0914,-0.1057,-0.1058,-0.1145,-0.1156,-0.1179,0,-0.1184,0,-0.1204,-0.1264,-0.1265,0,0,0,-0.095,-0.0964,-0.098,-0.087,-0.0915,-0.1056,-0.1002,-0.1152,-0.1164,-0.1194,-0.1187,-0.1194,-0.1208,-0.1265,-0.1266,-0.1357,-0.1357,0,0,-0.0942,-0.0925,-0.0971,-0.0987,-0.093,-0.0997,-0.1006,-0.116,-0.1176,-0.1188,-0.1199,-0.1211,-0.1266,-0.1268,-0.1357,-0.1357,0,0,0,-0.0894,-0.0919,-0.0933,-0.0979,-0.0993,-0.1001,-0.1011,-0.1171,-0.1168,-0.1201,-0.1213,-0.1267,-0.1269,-0.1357,-0.1357,-0.1465,0,0,0,-0.0891,-0.0888,-0.0929,-0.0925,-0.0989,-0.1085,-0.1019,-0.1158,-0.1175,-0.1212,-0.1267,-0.1271,-0.1358,-0.1357,-0.1462,-0.1461,0,0,0,-0.0866,-0.0887,-0.0891,-0.0923,-0.0965,-0.1082,-0.1092,-0.1163,-0.1181,-0.1265,-0.1271,-0.1358,-0.1357,-0.146,-0.1458,-0.1482,0,0,0,-0.0863,-0.0874,-0.0891,-0.0918,-0.0963,-0.1039,-0.1092,-0.1177,-0.1247,-0.1268,-0.1358,-0.1357,-0.1459,-0.1456,-0.1481,-0.1318,0,0,0,-0.0873,-0.0876,-0.0892,-0.0909,-0.0956,-0.1023,-0.1137,-0.1248,-0.1248,-0.1315,-0.1318,-0.1463,-0.1457,-0.1482,-0.1302,0,0,0,0,-0.0892,-0.0895,-0.0916,-0.0948,-0.1005,-0.1116,-0.1214,-0.1264,-0.1358,-0.1279,-0.1427,-0.1418,-0.1432,-0.1329,-0.1356,-0.1356,-0.1356,-0.1356,-0.1356,-0.0869,-0.0898,-0.0942,-0.0998,-0.1065,-0.1191,-0.1289,-0.1365,-0.1389,-0.1429,-0.1482,-0.1532,-0.1426,-0.1477,-0.1477,-0.1478,-0.1478,-0.1478,-0.1479,-0.0861,-0.0908,-0.0965,-0.1022,-0.1136,-0.125,-0.1402,-0.1453,-0.1554,-0.1535,-0.1546,-0.1417,-0.1488,-0.1486,-0.1485,-0.1484,-0.1483,-0.1482,-0.1482,-0.0827,-0.088,-0.09,-0.1024,-0.1175,-0.1331,-0.1455,-0.1546,-0.1599,-0.1642,-0.1509,-0.1575,-0.1593,-0.166,-0.166,-0.166,-0.166,-0.166,-0.166,-0.0829,-0.0862,-0.092,-0.1061,-0.1172,-0.1331,-0.1492,-0.1532,-0.1598,-0.1558,-0.1657,-0.1591,-0.1585,-0.1599,-0.1662,-0.1662,-0.1662,-0.1661,-0.1661,-0.0887,-0.0866,-0.0948,-0.1023,-0.1233,-0.1315,-0.1461,-0.1478,-0.1506,-0.1486,-0.1512,-0.1519,-0.1451,-0.1447,-0.1455,-0.1477,-0.1476,-0.1474,0,-0.0923,-0.092,-0.0994,-0.1076,-0.1187,-0.1302,-0.1296,-0.135,-0.1389,-0.1357,-0.151,-0.1539,-0.1543,-0.1465,-0.1459,-0.1465,0,0,0,-0.0996,-0.0989,-0.1038,-0.1066,-0.116,-0.1203,-0.1292,-0.1268,-0.1394,-0.1352,-0.1426,-0.1439,-0.1565,-0.1668,-0.1579,-0.1571,-0.1588,0,0]},{"header":{"parameterUnit":"m.s-1","parameterCategory":2,"la1":30.2992,"la2":30.254,"lo1":-89.0895,"lo2":-89.0443,"dy":0.0025,"dx":0.0025,"nx":19,"ny":19,"refTime":"2026-05-15T03:00:00:Z","depth":"4","parameterNumber":3,"parameterNumberName":"V-component_of_CURRENTS"},"data":[0,0,0,-0.0412,-0.0413,-0.0411,-0.0411,-0.0398,-0.0398,0,0,0,0,0,0,0,0,0,0,0,-0.0415,-0.0415,-0.0412,-0.0413,-0.0411,-0.0411,-0.0398,-0.0398,0,0,0,0,0,0,0,0,0,0,0,-0.0415,-0.0415,-0.0415,-0.0413,-0.0411,-0.0411,-0.0398,-0.04,0,0,0,0,0,0,0,0,0,0,-0.0402,-0.0409,-0.0415,-0.0415,-0.0413,-0.0411,-0.0411,-0.04,-0.04,-0.0397,0,-0.0404,0,-0.0403,-0.0397,-0.0397,0,0,0,-0.0406,-0.041,-0.041,-0.0415,-0.0413,-0.0411,-0.041,-0.04,-0.04,-0.0397,-0.0404,-0.0404,-0.0403,-0.0397,-0.0397,-0.0432,-0.0433,0,0,-0.0406,-0.0412,-0.041,-0.041,-0.0422,-0.041,-0.041,-0.04,-0.0403,-0.0404,-0.0403,-0.0403,-0.0397,-0.0397,-0.0432,-0.0433,0,0,0,-0.0411,-0.0412,-0.0412,-0.041,-0.0412,-0.041,-0.041,-0.0403,-0.0404,-0.0403,-0.0402,-0.0397,-0.0397,-0.0432,-0.0432,-0.0437,0,0,0,-0.041,-0.0415,-0.0412,-0.0415,-0.0413,-0.041,-0.0414,-0.0405,-0.0403,-0.0402,-0.0397,-0.0397,-0.0431,-0.0432,-0.0436,-0.0475,0,0,0,-0.0413,-0.0415,-0.0418,-0.0416,-0.0418,-0.041,-0.0409,-0.0404,-0.0403,-0.0397,-0.0397,-0.0431,-0.0432,-0.0435,-0.0472,-0.0421,0,0,0,-0.0414,-0.045,-0.0418,-0.0465,-0.0418,-0.046,-0.041,-0.0437,-0.0441,-0.0397,-0.0431,-0.0432,-0.0434,-0.047,-0.042,-0.0369,0,0,0,-0.0465,-0.0456,-0.0487,-0.0459,-0.0521,-0.0459,-0.0494,-0.0473,-0.0451,-0.0431,-0.0432,-0.0436,-0.0472,-0.0421,-0.0432,0,0,0,0,-0.0508,-0.0525,-0.0541,-0.0566,-0.0577,-0.0563,-0.0535,-0.05,-0.047,-0.0457,-0.0457,-0.0481,-0.0446,-0.0416,-0.0437,-0.0437,-0.0437,-0.0437,-0.0437,-0.0562,-0.058,-0.0634,-0.0651,-0.0668,-0.0636,-0.0605,-0.055,-0.0519,-0.0505,-0.0497,-0.0489,-0.0461,-0.0493,-0.0493,-0.0493,-0.0493,-0.0493,-0.0493,-0.0635,-0.0669,-0.0685,-0.0742,-0.073,-0.0738,-0.0662,-0.061,-0.0533,-0.0526,-0.049,-0.0444,-0.0494,-0.0494,-0.0494,-0.0494,-0.0494,-0.0494,-0.0494,-0.0673,-0.069,-0.0726,-0.0789,-0.0804,-0.0775,-0.0722,-0.0656,-0.057,-0.0538,-0.0457,-0.0489,-0.047,-0.0493,-0.0493,-0.0493,-0.0492,-0.0492,-0.0492,-0.0687,-0.0726,-0.0776,-0.0822,-0.0847,-0.0828,-0.0752,-0.0677,-0.059,-0.049,-0.0537,-0.0489,-0.0489,-0.047,-0.0492,-0.0492,-0.0492,-0.0492,-0.0492,-0.0733,-0.0734,-0.0814,-0.0853,-0.0882,-0.0855,-0.0792,-0.0616,-0.0523,-0.0424,-0.043,-0.0433,-0.0421,-0.0423,-0.0401,-0.0403,-0.0402,-0.0402,0,-0.0739,-0.075,-0.0839,-0.0896,-0.0903,-0.0869,-0.0717,-0.0612,-0.0496,-0.0493,-0.0553,-0.0572,-0.057,-0.0569,-0.0569,-0.0552,0,0,0,-0.0753,-0.0781,-0.0842,-0.0901,-0.0919,-0.0758,-0.0671,-0.0602,-0.0507,-0.0388,-0.0386,-0.039,-0.0487,-0.049,-0.0478,-0.0478,-0.0447,0,0]}]]